This demonstration page uses our WeatherBlox Daily Observations layout. Learn more.

Left ArrowRight Arrow

38.83388, -104.82136

Hourly Observations for February 13, 2019

Temp ( °F °C ) Dew Point ( °F °C ) Humidity (%) Winds ( mph kmh ) Pressure ( in mb ) Visibility ( mi km ) Precip ( " mm )
12:58 am 00:58 Clear 33 0.6 -8 -22.1 16 16 Calm 29.64 1004 10 16 0.00 0.00
1:58 am 01:58 Clear 32 0.2 -10 -23.1 16 16 Calm 29.61 1003 10 16 0.00 0.00
2:58 am 02:58 Clear 35 1.7 -13 -25.1 12 12 SE 5 7 29.57 1001 10 16 0.00 0.00
3:58 am 03:58 Clear 31 -0.4 -12 -24.4 14 14 Calm 29.56 1001 10 16 0.00 0.00
4:58 am 04:58 Clear 31 -0.6 -11 -23.9 15 15 NW 3 6 29.57 1001 10 16 0.00 0.00
5:58 am 05:58 Clear 28 -2 -8 -22.2 20 20 NNW 5 7 29.58 1002 10 16 0.00 0.00
6:58 am 06:58 Mostly Sunny 31 -0.4 -12 -24.4 14 14 Calm 29.52 1000 10 16 0.00 0.00
7:58 am 07:58 Partly Cloudy 32 -0.1 -12 -24.3 14 14 Calm 29.49 999 10 16 0.00 0.00
8:58 am 08:58 Sunny 34 1.3 -7 -21.7 16 16 Calm 29.45 997 10 16 0.00 0.00
9:58 am 09:58 Sunny 41 5 -7 -21.7 12 12 SE 7 11 29.37 995 10 16 0.00 0.00
10:58 am 10:58 Sunny 43 6 -8 -22.3 11 11 WNW 7 11 29.33 993 10 16 0.00 0.00
11:58 am 11:58 Sunny 50 10.2 -6 -21.2 9 9 N 7 11 29.27 991 10 16 0.00 0.00
12:58 pm 12:58 Sunny 53 11.5 -4 -19.9 9 9 Calm 29.20 989 10 16 0.00 0.00
1:58 pm 13:58 Sunny 56 13.3 1 -17.2 10 10 Calm 29.16 988 10 16 0.00 0.00
2:58 pm 14:58 Mostly Cloudy 57 13.9 4 -15.3 12 12 SE 3 6 29.15 987 10 16 0.00 0.00
3:58 pm 15:58 Mostly Sunny 55 12.5 7 -13.8 15 15 ENE 5 7 29.17 988 10 16 0.00 0.00
4:21 pm 16:21 Sunny 54 12 14 -10 21 21 NE 15 24 29.16 988 10 16 0.00 0.00
5:58 pm 17:58 Partly Cloudy 51 10.6 16 -9 24 24 SSW 13 20 29.23 990 10 16 0.00 0.00
5:59 pm 17:59 Partly Cloudy 52 11 16 -9 24 24 SE 14 22 29.23 990 10 16 0.00 0.00
6:22 pm 18:22 Mostly Cloudy 52 11 19 -7 28 28 SE 14 22 29.17 988 10 16 0.00 0.00
6:58 pm 18:58 Mostly Clear 50 9.8 20 -6.8 31 31 ESE 23 37 29.15 987 10 16 0.00 0.00
7:00 pm 19:00 Mostly Clear 50 10 19 -7 30 30 E 16 26 29.16 987 10 16 0.00 0.00
7:06 pm 19:06 Mostly Clear 50 10 19 -7 30 30 E 15 24 29.15 987 10 16 0.00 0.00
7:09 pm 19:09 Mostly Clear 50 10 19 -7 30 30 ESE 14 22 29.15 987 10 16 0.00 0.00
7:25 pm 19:25 Clear 50 10 19 -7 30 30 SE 16 26 29.14 987 10 16 0.00 0.00
7:31 pm 19:31 Clear 50 10 18 -8 28 28 SSE 13 20 29.15 987 10 16 0.00 0.00
7:34 pm 19:34 Clear 50 10 18 -8 28 28 SE 17 28 29.15 987 10 16 0.00 0.00
7:35 pm 19:35 Clear 50 10 18 -8 28 28 E 17 28 29.15 987 10 16 0.00 0.00
7:46 pm 19:46 Clear 50 10 18 -8 28 28 SE 18 30 29.17 988 10 16 0.00 0.00
7:53 pm 19:53 Clear 50 10 18 -8 28 28 SSE 20 31 29.18 988 10 16 0.00 0.00
7:58 pm 19:58 Clear 49 9.6 18 -7.6 29 29 ESE 18 30 29.21 989 10 16 0.00 0.00
7:59 pm 19:59 Clear 50 10 18 -8 28 28 E 15 24 29.20 989 10 16 0.00 0.00
8:04 pm 20:04 Clear 48 9 18 -8 29 29 SE 21 33 29.19 989 10 16 0.00 0.00
8:54 pm 20:54 Clear 46 8 18 -8 32 32 SE 21 33 29.22 990 10 16 0.00 0.00
8:58 pm 20:58 Clear 47 8.4 18 -8 31 31 ESE 15 24 29.23 990 10 16 0.00 0.00
8:59 pm 20:59 Clear 46 8 18 -8 32 32 SSE 13 20 29.23 990 10 16 0.00 0.00
9:07 pm 21:07 Clear 46 8 18 -8 32 32 S 12 19 29.23 990 10 16 0.00 0.00
9:23 pm 21:23 Clear 46 8 18 -8 32 32 E 14 22 29.25 991 10 16 0.00 0.00
9:58 pm 21:58 Clear 47 8.1 18 -7.7 32 32 ESE 15 24 29.21 989 10 16 0.00 0.00
10:58 pm 22:58 Clear 47 8.5 17 -8.4 30 30 SE 8 13 29.20 989 10 16 0.00 0.00
11:39 pm 23:39 Clear 48 9 18 -8 29 29 ESE 17 28 29.10 985 10 16 0.00 0.00
11:43 pm 23:43 Clear 50 10 18 -8 28 28 SE 15 24 29.11 986 10 16 0.00 0.00
11:57 pm 23:57 Clear 50 10 18 -8 28 28 SSE 18 30 29.12 986 10 16 0.00 0.00
11:58 pm 23:58 Clear 49 9.4 19 -7.5 30 30 SSE 21 33 29.10 985 10 16 0.00 0.00

Powered by AerisWeather